TimePST,TemperatureF,Dew PointF,Humidity,Sea Level PressureIn,VisibilityMPH,Wind Direction,Wind SpeedMPH,Gust SpeedMPH,PrecipitationIn,Events,Conditions,WindDirDegrees,DateUTC
12:56 AM,28.9,26.1,89,30.06,10.0,Calm,Calm,-,N/A,,Clear,0,2013-11-27 08:56:00
1:56 AM,28.9,26.1,89,30.05,10.0,Calm,Calm,-,N/A,,Clear,0,2013-11-27 09:56:00
2:56 AM,30.0,26.1,85,30.04,8.0,Calm,Calm,-,N/A,,Clear,0,2013-11-27 10:56:00
3:56 AM,27.0,24.1,89,30.03,9.0,Calm,Calm,-,N/A,,Clear,0,2013-11-27 11:56:00
4:56 AM,28.0,25.0,88,30.02,9.0,Calm,Calm,-,N/A,,Clear,0,2013-11-27 12:56:00
5:56 AM,26.1,23.0,88,30.01,8.0,Calm,Calm,-,N/A,,Clear,0,2013-11-27 13:56:00
6:11 AM,26.1,24.1,92,30.11,8.0,Calm,Calm,-,N/A,,Mostly Cloudy,0,2013-11-27 14:11:00
6:56 AM,27.0,24.1,89,30.01,6.0,Calm,Calm,-,N/A,,Mostly Cloudy,0,2013-11-27 14:56:00
7:56 AM,28.0,26.1,92,30.01,6.0,Calm,Calm,-,N/A,,Overcast,0,2013-11-27 15:56:00
8:56 AM,33.1,28.9,85,30.02,6.0,Calm,Calm,-,N/A,,Overcast,0,2013-11-27 16:56:00
9:56 AM,37.0,32.0,82,30.01,7.0,East,3.5,-,N/A,,Overcast,100,2013-11-27 17:56:00
10:56 AM,43.0,30.9,62,29.99,10.0,Calm,Calm,-,N/A,,Overcast,0,2013-11-27 18:56:00
11:56 AM,46.9,33.1,59,29.96,10.0,North,3.5,-,N/A,,Overcast,10,2013-11-27 19:56:00
12:56 PM,48.9,33.1,54,29.94,10.0,NE,6.9,-,N/A,,Overcast,40,2013-11-27 20:56:00
1:56 PM,48.0,32.0,54,29.91,10.0,NE,8.1,-,N/A,,Overcast,40,2013-11-27 21:56:00
2:56 PM,48.0,33.1,56,29.91,10.0,NNE,4.6,-,N/A,,Mostly Cloudy,30,2013-11-27 22:56:00
3:56 PM,46.0,32.0,58,29.91,10.0,NNW,4.6,-,N/A,,Mostly Cloudy,330,2013-11-27 23:56:00
4:56 PM,41.0,32.0,70,29.90,10.0,NNW,4.6,-,N/A,,Mostly Cloudy,340,2013-11-28 00:56:00
5:56 PM,39.9,30.9,70,29.91,10.0,Calm,Calm,-,N/A,,Scattered Clouds,0,2013-11-28 01:56:00
6:56 PM,36.0,30.0,79,29.91,10.0,Calm,Calm,-,N/A,,Scattered Clouds,0,2013-11-28 02:56:00
7:56 PM,34.0,28.9,82,29.92,10.0,SSW,4.6,-,N/A,,Partly Cloudy,210,2013-11-28 03:56:00
8:56 PM,32.0,28.0,85,29.92,10.0,SW,3.5,-,N/A,,Partly Cloudy,230,2013-11-28 04:56:00
9:56 PM,30.9,28.9,92,29.93,10.0,South,5.8,-,N/A,,Partly Cloudy,190,2013-11-28 05:56:00
10:56 PM,30.0,27.0,88,29.93,10.0,SSW,4.6,-,N/A,,Clear,210,2013-11-28 06:56:00
11:56 PM,30.9,28.9,92,29.93,10.0,South,4.6,-,N/A,,Clear,180,2013-11-28 07:56:00